Tracking 28790 objects as of 19-Apr-2024
HD Live streaming from Space Station
objects crossing your sky now

USA 162

Track USA 162 now!
USA 162 is classified as:


NORAD ID: 26948
Int'l Code: 2001-046A
Perigee: 35,750.2 km
Apogee: 35,838.3 km
Inclination: 12.8 °
Period: 1,436.1 minutes
Semi major axis: 42165 km
RCS: Unknown
Launch date: October 11, 2001
Source: United States (US)
Launch site: AIR FORCE EASTERN TEST RANGE (AFETR)
Your satellite tracking list
Your tracking list is empty




NASA's NSSDC Master Catalog

Two Line Element Set (TLE):
1 26948U 01046A   24015.13133650 0.00000000  00000-0  00000-0 0    07
2 26948  12.7710  34.4720 0010450 181.2615 178.7384  1.00269955    08
Source of the keplerian elements: McCants